Wind_Speed
49 50 51 52 53 53 54 54 54 55 55 56 56 57 57 57 57 57 57 57 58 58 58 58 57 57 57 57 57 58 58 58 58 58 58 58 60 60 61 61 61 62 62
51 52 53 54 56 56 57 57 57 58 58 58 58 59 59 59 60 60 59 59 59 59 59 59 58 58 58 58 58 58 58 58 58 58 58 59 60 61 61 61 61 62 62
54 54 55 56 57 58 59 60 60 60 60 60 61 61 61 61 61 61 61 61 60 60 59 59 58 58 58 59 59 59 59 59 59 59 59 60 60 61 60 61 62 62 63
55 55 56 57 58 59 61 61 62 62 62 63 63 63 63 63 63 62 61 61 61 61 60 59 59 59 59 59 59 59 59 59 59 59 59 60 61 61 61 61 62 63 64
56 56 57 57 58 60 61 62 63 64 64 64 64 64 64 63 62 61 61 61 60 60 60 59 59 59 59 59 59 59 59 59 59 59 60 60 60 61 61 61 62 63 64
54 55 55 56 57 59 60 61 62 63 63 63 62 62 62 62 61 60 60 60 60 60 60 59 60 60 59 59 59 59 59 59 59 59 60 60 61 61 61 62 63 64 65
51 52 53 53 54 55 57 59 59 59 59 60 60 61 61 61 61 60 60 60 59 59 59 59 59 59 59 59 58 58 58 58 59 59 61 61 62 61 62 63 64 65 66
49 50 51 52 52 53 54 55 56 57 57 57 57 58 59 59 59 58 58 58 58 58 58 58 58 58 58 58 58 57 58 58 59 60 61 62 62 62 63 63 65 66 67
47 48 49 49 50 51 52 52 53 54 55 56 56 55 56 57 57 57 57 56 57 57 57 57 57 57 57 56 57 56 57 58 60 60 61 62 62 63 64 65 66 66 67
47 47 48 48 49 50 51 51 52 52 53 54 54 54 54 55 55 55 55 55 55 55 55 55 56 56 57 57 57 57 58 59 60 61 62 62 63 64 65 66 67 67 69
47 47 48 48 49 50 50 51 52 52 52 52 53 54 53 53 53 53 53 53 53 53 54 55 55 57 57 57 58 59 59 60 61 61 62 63 64 65 66 67 68 68 69
46 47 47 48 49 50 50 51 51 51 51 52 52 52 52 52 51 52 52 53 53 53 54 55 56 56 57 58 59 60 60 60 61 62 63 64 65 65 66 67 69 70 71
44 45 46 47 47 48 48 49 49 49 50 50 50 50 50 51 51 51 52 53 53 53 54 55 55 56 57 58 59 60 61 61 62 63 64 65 66 67 68 69 70 71 71
43 44 44 45 46 47 48 48 49 49 49 49 48 49 49 51 51 52 53 53 54 54 54 55 57 58 59 60 61 62 62 63 63 65 65 66 67 68 69 71 71 71 71
43 44 44 45 45 46 46 47 48 48 49 49 49 50 51 51 52 52 53 54 54 54 55 57 58 59 60 61 62 62 63 64 66 67 67 68 69 70 71 71 71 71 70
44 44 45 45 46 46 47 47 48 49 50 50 51 51 52 53 53 54 54 55 56 57 57 58 58 59 60 62 62 63 65 67 68 68 69 70 71 71 72 72 72 71 70
45 45 46 47 47 48 48 49 49 50 50 51 52 52 53 53 54 55 55 56 57 57 58 59 60 61 62 63 64 65 67 68 69 70 71 72 73 73 73 72 72 71 70
47 47 48 48 49 49 49 50 50 51 51 52 53 53 54 55 56 56 57 58 59 59 60 61 61 63 64 65 67 68 69 70 71 72 72 73 74 74 73 73 72 71 70
50 50 50 51 51 51 51 52 53 53 54 55 56 57 57 58 59 60 60 61 61 62 62 63 64 66 67 68 69 71 72 72 73 73 74 74 74 74 73 73 72 71 70
53 53 53 54 54 54 55 55 56 57 58 58 59 60 60 61 62 62 63 63 64 64 65 66 67 68 69 71 72 73 73 74 74 74 75 75 75 74 74 73 72 71 69
56 56 57 57 57 58 58 59 59 60 61 62 62 63 63 64 64 65 66 66 67 68 69 70 70 71 72 73 74 74 74 74 75 75 75 75 75 74 74 73 71 70 69
60 60 61 61 61 62 62 63 64 64 65 66 66 67 67 68 68 69 70 70 71 72 72 73 73 74 74 75 75 75 75 76 76 76 75 75 74 74 72 71 70 69 68
64 65 65 65 66 66 67 68 68 69 69 70 70 71 72 72 73 73 73 74 74 75 75 75 75 75 76 76 76 76 76 76 76 75 75 74 73 72 71 70 68 67 66
68 68 69 69 70 71 71 72 72 73 74 74 74 75 75 75 76 76 76 77 77 77 77 77 77 77 77 77 76 76 76 75 74 74 73 72 71 70 69 68 66 65 63
71 72 72 73 73 74 75 75 76 76 77 78 78 78 78 78 78 78 78 78 78 77 77 77 77 76 76 76 76 75 75 74 73 72 71 70 69 68 67 66 64 62 60
74 75 75 76 77 77 78 78 79 79 79 80 80 80 79 79 79 79 79 78 78 77 77 77 76 76 76 75 74 74 73 72 71 70 69 68 67 66 65 64 61 60 58
Wind_Direction
265 265 265 264 263 263 263 264 265 265 266 267 268 269 271 273 274 276 277 278 280 282 283 285 287 288 290 291 293 294 296 297 299 300 301 302 304 306 308 310 311 313 314
264 264 264 263 263 263 263 263 264 265 266 267 268 269 271 272 274 275 277 278 280 281 283 284 286 287 289 290 292 293 294 296 297 299 300 301 303 306 308 310 311 312 314
263 264 264 263 263 263 263 263 264 265 265 266 268 269 270 272 273 275 277 278 279 281 282 283 285 286 288 289 290 292 293 295 296 297 299 301 303 305 308 309 310 312 313
263 264 264 264 264 264 264 264 264 265 265 266 268 269 270 272 273 274 276 278 279 280 281 282 284 285 286 288 289 290 292 293 295 297 298 300 302 305 307 308 310 311 313
264 265 265 265 265 265 264 264 265 265 266 267 268 269 270 272 273 274 275 276 278 279 281 282 283 284 285 286 288 289 291 292 294 296 298 300 302 305 306 308 309 310 312
265 266 265 265 265 265 265 264 265 266 267 267 268 269 270 272 273 274 275 276 277 278 280 281 282 283 284 285 287 289 290 292 294 295 297 299 302 304 305 307 308 309 312
266 265 265 265 265 265 265 264 265 266 268 269 269 269 270 272 273 273 275 277 278 279 279 280 281 282 283 285 286 288 289 291 292 294 297 300 302 303 304 306 307 309 310
267 266 266 266 266 265 265 266 267 267 268 269 271 271 271 272 273 274 275 276 277 278 278 280 281 282 283 284 286 288 289 290 292 294 297 299 301 302 304 305 306 308 310
269 268 268 268 268 267 267 268 269 269 270 270 271 272 272 272 272 273 274 275 276 276 276 278 279 281 283 284 286 288 288 289 292 295 297 299 301 302 303 305 306 307 309
270 270 269 269 270 270 271 270 271 272 273 273 273 274 274 273 273 273 273 274 275 276 277 278 280 280 282 285 286 287 288 290 293 296 297 299 299 301 302 304 305 306 308
270 270 270 271 271 271 272 273 273 274 275 276 276 276 276 275 275 275 275 275 276 277 278 279 280 282 283 285 286 287 289 291 294 295 296 297 299 300 302 303 304 306 307
271 270 270 270 271 271 272 273 275 276 276 277 278 277 278 277 276 277 277 277 278 278 279 280 282 283 283 284 286 288 290 292 294 295 296 297 298 299 300 302 303 305 307
272 271 272 272 272 273 273 275 276 277 277 278 278 277 277 278 277 278 278 279 280 280 281 282 283 283 284 285 287 289 291 292 293 294 295 296 297 298 299 301 303 305 307
273 273 274 274 274 275 275 276 276 277 278 279 279 279 279 279 279 279 280 280 280 281 282 282 283 283 284 286 288 289 290 291 292 293 294 295 296 298 299 301 302 304 305
273 273 274 275 276 276 277 278 279 279 279 279 279 279 279 280 280 280 280 281 282 282 282 283 284 285 285 286 287 289 290 291 292 292 293 294 295 297 298 300 302 303 304
273 274 274 275 276 277 278 279 279 280 280 281 281 281 281 281 281 282 282 283 283 283 284 284 285 285 285 286 287 288 289 290 291 292 293 294 295 297 298 300 301 302 303
274 274 275 276 277 278 278 279 280 280 281 282 282 282 282 282 283 283 283 283 284 284 284 285 285 286 286 286 287 287 288 289 290 292 293 294 295 296 298 299 300 301 301
275 276 276 277 278 278 279 280 280 281 281 282 282 283 283 284 284 284 284 284 285 285 285 285 286 286 286 287 287 288 288 289 290 291 292 293 295 296 297 298 298 299 300
275 275 276 277 278 278 279 279 280 280 281 282 283 283 284 284 284 285 285 285 285 285 286 286 286 286 286 287 287 288 288 289 290 291 292 293 294 295 295 296 297 297 298
275 276 276 277 278 278 279 279 280 281 281 282 283 283 283 284 284 284 285 285 285 285 285 285 285 285 285 286 287 287 288 289 289 290 291 292 293 293 294 294 295 295 296
275 276 277 277 278 279 279 280 280 281 281 282 283 283 284 284 284 284 284 284 284 284 284 285 285 285 285 286 286 287 288 288 289 290 290 291 291 292 292 293 293 294 294
276 276 277 278 279 279 280 280 281 281 282 282 283 283 284 284 284 284 284 284 285 285 285 285 285 285 286 286 286 287 287 288 288 289 289 289 290 290 291 291 291 292 292
275 276 277 278 279 280 280 281 281 282 282 283 283 283 284 284 284 285 285 285 285 285 286 286 286 286 286 286 286 287 287 287 288 288 288 288 288 289 289 289 290 290 291
275 276 277 278 279 279 280 281 281 282 282 283 283 284 284 284 285 285 285 285 285 285 285 285 285 286 286 286 286 286 286 287 287 287 287 287 287 287 287 287 288 288 288
275 276 277 278 278 279 280 281 281 282 283 283 284 284 285 285 285 285 285 286 286 286 286 286 285 285 285 285 285 285 285 286 286 286 285 286 286 286 287 287 287 287 287
275 276 277 278 279 279 280 281 282 282 283 284 284 285 285 285 286 286 286 286 286 286 286 286 285 285 285 285 285 285 285 285 285 285 285 285 285 285 285 285 285 285 285
Height
5771 5773 5774 5775 5775 5776 5776 5777 5777 5778 5778 5778 5777 5776 5775 5774 5773 5772 5770 5768 5766 5764 5761 5758 5756 5752 5749 5745 5741 5737 5733 5730 5725 5721 5716 5710 5704 5699 5692 5686 5679 5671 5664
5759 5760 5761 5762 5762 5763 5764 5764 5764 5764 5765 5764 5764 5763 5762 5761 5760 5759 5757 5755 5753 5751 5749 5746 5743 5740 5737 5733 5730 5726 5722 5717 5713 5708 5703 5698 5692 5686 5680 5674 5667 5659 5652
5746 5747 5748 5748 5749 5750 5750 5751 5751 5751 5751 5750 5750 5750 5749 5748 5746 5745 5744 5742 5740 5738 5735 5733 5730 5727 5724 5721 5717 5713 5709 5705 5701 5696 5691 5685 5680 5674 5668 5662 5654 5647 5640
5733 5733 5734 5735 5735 5736 5736 5736 5736 5736 5736 5736 5736 5735 5735 5734 5732 5731 5730 5728 5726 5724 5722 5719 5716 5714 5711 5707 5704 5700 5696 5692 5688 5683 5678 5673 5667 5662 5656 5649 5643 5635 5627
5718 5719 5720 5720 5721 5721 5721 5722 5722 5721 5721 5721 5721 5720 5720 5719 5718 5717 5715 5713 5712 5710 5708 5705 5703 5700 5697 5694 5691 5687 5683 5679 5674 5670 5665 5660 5655 5649 5643 5637 5631 5623 5616
5704 5705 5705 5705 5706 5706 5706 5707 5706 5706 5706 5705 5705 5705 5704 5704 5703 5702 5700 5699 5697 5695 5693 5691 5688 5685 5683 5680 5677 5673 5669 5665 5661 5656 5652 5647 5642 5636 5630 5624 5618 5612 5604
5690 5691 5691 5691 5691 5692 5692 5691 5691 5691 5690 5690 5690 5689 5689 5689 5688 5686 5685 5683 5682 5681 5679 5676 5674 5671 5669 5666 5662 5659 5655 5651 5648 5644 5639 5634 5629 5623 5617 5611 5605 5598 5591
5677 5677 5677 5677 5677 5677 5677 5677 5676 5676 5676 5675 5675 5674 5674 5673 5672 5671 5670 5669 5667 5666 5664 5662 5660 5657 5654 5651 5648 5645 5642 5638 5634 5630 5625 5620 5615 5609 5603 5597 5591 5585 5577
5663 5664 5664 5664 5664 5663 5663 5663 5662 5662 5661 5661 5660 5660 5659 5659 5658 5657 5656 5654 5653 5651 5650 5648 5645 5643 5640 5637 5634 5631 5628 5625 5620 5616 5611 5606 5600 5594 5589 5583 5577 5570 5564
5650 5650 5650 5650 5650 5650 5650 5649 5649 5648 5647 5647 5646 5645 5645 5644 5643 5642 5641 5640 5638 5637 5635 5633 5631 5628 5626 5623 5620 5617 5614 5610 5606 5602 5597 5591 5586 5580 5574 5568 5562 5555 5549
5637 5637 5637 5637 5637 5637 5636 5636 5635 5635 5634 5633 5632 5632 5631 5630 5629 5628 5626 5625 5624 5622 5620 5618 5616 5614 5611 5609 5606 5603 5600 5596 5592 5587 5582 5576 5571 5565 5559 5553 5546 5540 5533
5625 5625 5625 5624 5624 5624 5624 5623 5622 5622 5621 5620 5619 5618 5617 5616 5615 5613 5612 5611 5609 5608 5606 5604 5602 5599 5597 5594 5591 5588 5584 5580 5576 5571 5567 5561 5556 5550 5544 5537 5531 5524 5517
5613 5613 5612 5612 5611 5611 5610 5610 5609 5608 5607 5606 5605 5604 5603 5601 5600 5599 5598 5596 5595 5593 5591 5589 5587 5585 5582 5579 5576 5572 5569 5564 5560 5556 5551 5546 5540 5534 5528 5522 5515 5508 5501
5601 5600 5600 5600 5599 5598 5598 5597 5596 5595 5594 5593 5592 5590 5589 5588 5586 5585 5584 5582 5581 5579 5577 5575 5572 5570 5567 5564 5560 5556 5552 5548 5544 5539 5534 5529 5524 5518 5512 5505 5499 5493 5486
5589 5588 5588 5587 5586 5586 5585 5584 5583 5582 5581 5580 5578 5577 5575 5574 5572 5571 5569 5567 5566 5564 5561 5559 5557 5554 5551 5547 5544 5540 5535 5531 5527 5522 5517 5512 5507 5501 5495 5489 5483 5476 5470
5576 5576 5575 5574 5574 5573 5572 5571 5569 5568 5567 5565 5564 5563 5561 5559 5558 5556 5554 5552 5550 5548 5546 5544 5541 5538 5534 5531 5527 5523 5518 5514 5508 5504 5499 5494 5489 5483 5478 5471 5465 5459 5453
5563 5563 5562 5561 5561 5560 5558 5557 5556 5554 5553 5551 5550 5548 5546 5544 5542 5540 5538 5536 5534 5532 5530 5527 5524 5520 5517 5513 5509 5505 5500 5495 5490 5485 5481 5475 5470 5465 5459 5453 5447 5441 5435
5550 5549 5548 5548 5547 5545 5544 5543 5541 5540 5538 5536 5535 5533 5531 5529 5527 5524 5522 5520 5518 5515 5512 5509 5505 5502 5498 5494 5490 5486 5481 5477 5472 5467 5461 5456 5450 5445 5440 5434 5429 5423 5418
5535 5535 5534 5533 5532 5531 5529 5528 5527 5525 5523 5521 5519 5517 5515 5513 5510 5508 5505 5503 5500 5497 5494 5490 5487 5483 5479 5475 5471 5466 5462 5457 5452 5447 5442 5437 5431 5425 5420 5415 5410 5405 5399
5520 5519 5518 5517 5516 5515 5514 5512 5511 5509 5507 5505 5502 5500 5498 5495 5492 5489 5487 5484 5481 5478 5474 5471 5467 5463 5459 5454 5450 5446 5441 5437 5432 5427 5422 5416 5411 5406 5401 5395 5390 5386 5381
5504 5503 5502 5501 5500 5498 5497 5495 5493 5491 5489 5487 5484 5482 5479 5477 5474 5471 5468 5464 5461 5458 5454 5450 5446 5442 5437 5433 5429 5424 5420 5415 5410 5405 5400 5395 5390 5385 5380 5375 5371 5366 5361
5486 5485 5484 5483 5482 5480 5478 5476 5475 5472 5470 5468 5465 5462 5459 5457 5454 5451 5447 5443 5440 5436 5432 5428 5424 5420 5415 5411 5406 5402 5397 5393 5388 5383 5378 5374 5369 5364 5359 5355 5350 5346 5342
5467 5466 5465 5464 5462 5460 5459 5457 5454 5452 5449 5447 5444 5441 5438 5435 5432 5428 5425 5421 5417 5413 5409 5405 5401 5397 5392 5388 5383 5379 5374 5370 5365 5360 5356 5352 5348 5343 5339 5335 5331 5327 5323
5448 5446 5445 5443 5441 5439 5437 5435 5433 5430 5427 5425 5422 5418 5415 5412 5409 5405 5401 5397 5394 5390 5385 5381 5377 5373 5369 5364 5360 5355 5350 5346 5342 5338 5333 5329 5326 5322 5318 5314 5311 5307 5304
5426 5425 5423 5421 5419 5417 5415 5412 5410 5407 5404 5401 5398 5395 5391 5388 5384 5380 5377 5373 5369 5365 5361 5357 5352 5348 5344 5340 5336 5332 5327 5323 5319 5315 5311 5307 5304 5301 5298 5294 5291 5288 5285
5404 5402 5400 5398 5396 5394 5391 5389 5386 5383 5380 5376 5373 5370 5366 5363 5359 5355 5352 5348 5344 5340 5336 5332 5327 5323 5319 5315 5311 5308 5304 5300 5296 5293 5289 5286 5283 5280 5277 5274 5271 5269 5266